Location: Brantley
(31.5822°N, 86.2569°W)
Time: 04:56:03
(UTC+00:00)

Vanguard 2 - Pass Details

Date: 17 February 2026
Orbit: 553 x 2896 km, 32.9° (Epoch: 5 March)

Event Time Altitude Azimuth Distance (km) Brightness Sun altitude
Rises 18:46:36 0° 259° (W) 3,118 10.9 45.2°
Reaches altitude 10° 18:50:26 10° 227° (SW) 2,526 11.0 44.9°
Maximum altitude 18:52:38 12° 205° (SSW) 2,589 11.3 44.8°
Drops below altitude 10° 18:55:10 10° 184° (S) 2,994 11.5 44.6°
Sets 19:00:58 0° 157° (SSE) 4,573 12.0 44.2°
